Wind_Speed
20 20 20 19 19 18 18 18 17 18 17 17 17 16 15 14 14 13 13 13 12 11 11 10 10 10 10 10 9 8 7 7 6 5 5 4 4 4 3 3 3 3 3
22 22 22 21 21 21 20 20 19 19 19 19 19 18 18 17 16 15 14 14 14 13 12 12 12 11 11 11 11 10 8 7 7 6 6 5 5 5 4 4 4 4 3
23 23 23 23 23 23 22 22 21 21 20 21 20 20 19 19 18 17 17 16 16 15 15 14 14 13 13 12 12 11 10 9 8 7 6 5 5 5 5 5 5 5 4
24 24 24 25 24 24 24 24 23 23 22 22 22 22 21 21 20 20 19 18 18 18 17 16 15 15 15 14 13 13 11 10 9 8 7 6 6 6 6 5 6 6 6
26 26 26 26 25 25 25 26 25 25 24 23 23 24 23 22 22 21 21 20 19 19 19 19 18 16 16 16 15 14 13 12 11 9 8 7 7 7 6 6 7 6 7
27 27 28 28 28 27 26 27 27 27 27 26 25 26 25 24 24 23 23 22 21 20 20 20 20 18 18 18 17 16 15 14 13 11 10 9 8 7 7 8 8 7 8
29 29 29 30 30 30 28 28 29 29 29 29 28 28 28 27 26 25 25 24 24 23 21 21 21 21 20 19 19 18 17 16 14 13 11 10 9 9 9 9 9 8 9
30 31 31 31 31 31 31 30 30 31 31 31 30 30 30 30 28 27 26 26 26 25 24 23 22 23 22 21 20 19 18 17 16 15 13 12 11 10 10 10 10 10 10
30 32 33 33 33 33 33 32 32 32 32 32 32 31 31 31 31 30 29 28 28 27 26 25 24 23 24 23 22 21 19 18 18 16 15 14 13 12 12 12 12 12 12
31 32 34 34 34 35 34 34 33 33 33 33 34 33 33 33 32 32 31 30 30 29 28 27 26 25 25 24 24 23 21 20 19 18 17 16 15 15 14 14 14 13 13
31 32 35 35 35 35 35 35 35 34 35 34 34 35 35 34 33 33 33 32 32 31 30 29 28 27 26 26 26 25 24 22 21 20 18 18 17 16 16 16 15 15 15
30 32 34 36 36 36 36 36 36 35 36 36 35 36 36 35 34 34 34 34 34 33 32 31 30 29 28 27 28 27 25 24 23 22 21 19 19 18 17 17 17 16 16
30 32 34 36 37 37 37 37 37 37 37 37 37 37 37 36 36 35 35 35 35 34 34 33 32 31 30 28 29 29 27 25 24 24 23 21 20 20 19 19 18 18 17
31 32 34 36 38 38 37 37 37 37 38 38 38 38 38 37 37 37 36 37 36 36 36 34 33 33 32 31 29 30 29 27 26 25 24 23 23 22 22 21 21 20 20
30 31 33 35 37 39 39 38 38 37 37 38 38 38 39 39 38 37 37 37 37 37 37 36 34 34 34 33 32 31 30 29 28 26 25 25 25 24 24 23 23 22 22
30 30 31 32 35 37 39 39 39 38 37 37 37 39 39 39 38 38 37 37 37 38 38 38 36 34 34 35 35 34 32 31 29 28 27 27 26 26 25 25 24 23 23
29 28 29 31 32 34 36 37 38 38 39 37 36 37 38 38 38 38 39 38 38 38 38 38 37 37 37 35 35 35 35 34 32 30 29 28 28 28 27 27 26 26 25
28 28 29 30 31 33 34 36 37 37 37 38 38 37 38 39 39 39 40 40 39 39 39 39 39 38 38 38 37 36 35 35 34 32 30 29 29 30 29 28 28 28 28
27 28 29 29 29 31 33 34 36 36 36 37 38 38 39 39 39 39 40 41 41 40 41 40 39 39 39 39 39 38 37 35 35 35 33 32 31 31 31 31 30 30 30
26 27 27 28 28 29 31 33 35 35 34 35 36 37 38 40 40 39 41 41 42 42 42 43 42 41 40 39 40 40 39 38 37 37 35 33 32 32 32 32 32 32 32
25 25 25 26 27 27 28 31 34 34 33 34 35 37 38 39 40 39 41 41 42 42 42 41 41 41 41 40 40 41 39 39 38 38 37 36 35 34 34 34 34 35 34
23 22 22 23 24 25 27 29 31 32 32 32 34 36 38 40 41 40 40 41 42 42 43 43 42 42 42 41 40 40 39 39 39 39 39 37 36 36 36 35 36 36 36
22 21 20 21 23 24 25 26 28 31 31 30 32 34 36 39 41 42 40 42 42 43 42 42 41 42 42 42 42 41 40 40 40 40 40 39 38 37 37 37 37 37 37
21 21 21 21 22 24 25 26 27 29 31 31 32 34 36 37 40 43 41 42 43 43 43 43 42 42 42 42 41 41 41 41 42 42 41 41 40 39 39 39 38 39 38
21 21 21 21 22 23 24 25 26 28 30 31 31 32 34 36 39 41 42 43 44 44 45 45 44 43 43 43 42 42 42 42 43 43 42 41 41 42 42 41 41 40 41
22 22 22 22 23 24 24 25 26 27 29 31 31 32 33 34 37 39 40 41 43 44 45 45 45 45 43 43 43 43 43 42 42 42 43 42 42 42 43 41 41 42 42
Wind_Direction
250 250 249 247 246 245 244 243 240 238 235 233 234 235 236 235 233 232 230 226 225 222 222 222 221 220 217 214 211 210 209 210 215 221 226 233 229 237 250 258 274 297 314
250 249 249 247 246 245 245 244 242 241 240 237 235 235 237 238 236 235 234 231 228 226 225 225 223 222 219 218 216 216 215 216 219 228 234 241 236 242 253 261 273 287 300
250 249 249 248 247 247 246 245 244 243 242 240 238 236 237 238 238 236 236 234 234 231 227 227 226 224 222 220 219 219 220 220 223 231 237 244 241 246 254 261 269 281 293
251 250 249 249 248 247 247 246 245 244 244 242 240 239 238 239 239 238 237 236 236 233 229 227 226 227 224 222 221 221 223 224 226 232 239 247 247 250 255 260 269 279 290
251 250 248 248 248 247 247 247 247 245 245 244 242 240 239 239 239 239 238 237 235 233 230 229 229 229 227 225 224 224 225 227 228 233 241 247 247 251 255 264 271 277 286
251 250 248 248 248 247 247 248 248 247 246 244 243 242 240 239 239 239 238 237 235 233 232 231 231 230 229 227 227 227 227 229 231 234 241 245 246 253 258 266 270 275 282
252 250 249 248 247 247 246 247 249 248 246 244 243 242 241 240 240 240 239 238 236 235 233 232 232 230 229 228 228 229 230 231 233 235 239 243 248 254 260 267 271 276 280
254 250 249 248 248 247 246 246 247 248 247 245 243 242 241 240 240 240 239 238 237 236 235 235 234 233 231 229 229 229 230 233 234 237 239 244 250 256 261 267 273 275 278
257 253 249 249 249 248 247 246 245 245 246 245 243 242 241 241 239 240 240 239 237 237 237 236 236 234 233 231 231 230 231 234 236 238 241 245 251 257 262 267 272 275 277
257 255 251 249 249 249 248 247 246 244 244 244 243 241 241 241 240 239 240 239 238 237 237 237 236 236 235 232 232 231 232 235 237 240 243 247 252 256 261 267 271 274 276
259 257 253 250 249 249 248 248 246 244 243 243 242 240 240 240 241 239 239 239 239 237 237 237 237 237 237 234 234 233 234 236 239 242 245 249 252 256 260 266 270 272 275
261 260 257 253 250 248 248 247 245 243 242 242 241 241 240 239 240 239 238 238 239 238 237 237 238 238 237 235 234 234 236 238 240 243 246 250 252 256 260 264 268 271 274
264 261 259 255 252 249 247 246 245 243 241 241 240 239 239 239 239 239 238 237 237 237 236 235 236 238 237 235 235 234 236 238 240 243 246 250 253 257 260 264 267 271 273
268 264 260 257 253 249 247 246 245 243 241 241 239 239 239 239 238 238 237 237 236 235 235 235 236 236 236 235 235 235 236 238 240 243 246 250 254 257 260 264 266 269 271
272 267 261 257 254 250 247 245 243 242 241 239 237 239 238 238 237 237 236 236 236 235 236 236 236 236 236 236 237 236 235 236 239 244 248 251 255 258 261 263 265 267 270
274 269 265 260 256 252 249 246 243 241 238 237 237 239 238 238 236 236 236 235 236 236 236 237 237 237 238 238 238 237 236 238 240 243 248 251 255 258 260 262 264 266 268
273 269 267 263 259 255 250 248 244 241 238 236 236 237 237 236 235 236 237 236 236 236 235 235 235 237 238 239 239 239 239 241 242 244 248 251 254 257 260 263 264 266 268
272 269 269 265 261 257 251 248 245 241 238 238 237 238 237 236 235 236 238 237 237 237 236 235 237 238 239 240 240 240 241 242 244 246 248 253 255 257 260 263 265 266 267
274 272 270 266 262 257 252 248 243 240 239 238 238 237 237 236 235 235 237 238 237 237 237 237 238 239 241 241 241 242 242 243 246 248 250 253 255 257 259 262 264 265 267
278 276 270 264 260 258 254 249 243 242 240 241 239 237 238 237 235 235 236 236 236 236 237 237 237 239 241 241 242 242 243 243 245 249 251 253 255 257 259 261 263 266 269
280 278 271 263 259 257 255 251 247 244 243 243 242 239 237 237 236 236 236 236 236 236 236 237 238 238 240 241 242 242 243 244 245 248 251 253 255 256 259 262 264 266 269
278 278 272 263 258 256 254 253 250 247 245 242 243 243 240 237 236 236 238 236 236 236 237 237 238 238 240 241 242 242 244 245 247 249 251 255 257 258 260 263 264 267 268
277 277 274 269 263 259 256 254 251 248 244 244 243 243 243 240 238 237 238 236 236 236 236 236 237 239 240 242 243 243 245 246 248 250 252 254 257 260 263 263 265 267 269
275 276 275 271 266 261 255 253 252 249 247 245 245 244 244 242 239 238 239 237 236 235 235 236 237 238 239 241 243 244 247 248 250 252 253 255 258 261 264 266 267 268 270
275 275 274 271 268 264 258 255 255 253 251 247 248 248 246 243 241 240 241 238 236 236 236 236 237 239 240 241 243 246 247 249 251 253 254 256 259 261 263 266 268 269 270
275 277 275 272 269 266 261 259 259 256 253 251 251 249 247 244 243 243 242 239 236 236 236 238 239 239 240 241 243 245 248 250 252 254 255 256 259 262 263 265 266 268 271
Height
5823 5824 5825 5827 5828 5829 5831 5832 5834 5835 5837 5838 5840 5841 5843 5844 5845 5847 5848 5849 5850 5852 5853 5854 5855 5857 5858 5859 5861 5862 5863 5864 5865 5865 5866 5867 5867 5867 5868 5868 5868 5869 5869
5819 5820 5821 5823 5824 5826 5827 5829 5830 5832 5833 5835 5837 5838 5840 5842 5843 5844 5846 5847 5848 5849 5851 5852 5853 5854 5856 5857 5859 5860 5862 5863 5864 5864 5865 5866 5866 5866 5867 5867 5867 5868 5868
5814 5816 5817 5819 5820 5822 5823 5825 5827 5828 5830 5832 5834 5835 5837 5839 5840 5842 5843 5844 5846 5847 5848 5849 5851 5852 5854 5856 5857 5859 5860 5861 5862 5863 5864 5864 5865 5865 5866 5866 5866 5866 5866
5809 5811 5812 5814 5815 5817 5819 5821 5822 5824 5826 5828 5830 5832 5833 5835 5837 5838 5840 5841 5843 5844 5845 5846 5848 5850 5851 5853 5855 5857 5858 5859 5861 5862 5862 5863 5863 5864 5864 5865 5865 5865 5865
5804 5805 5807 5809 5810 5812 5814 5816 5817 5819 5821 5823 5825 5827 5829 5831 5833 5835 5836 5838 5839 5841 5842 5844 5845 5847 5849 5851 5853 5854 5856 5857 5859 5860 5861 5861 5862 5862 5863 5863 5863 5864 5864
5798 5799 5801 5803 5805 5807 5809 5811 5812 5814 5816 5818 5821 5823 5825 5827 5829 5830 5832 5834 5835 5837 5839 5840 5842 5844 5846 5848 5850 5852 5853 5855 5857 5858 5859 5859 5860 5861 5861 5862 5862 5862 5862
5791 5793 5795 5797 5798 5801 5803 5805 5807 5809 5811 5813 5815 5818 5820 5822 5824 5826 5828 5830 5831 5833 5835 5837 5838 5840 5842 5844 5846 5849 5851 5853 5854 5855 5857 5857 5858 5859 5859 5860 5860 5860 5860
5784 5786 5788 5790 5792 5794 5796 5799 5801 5803 5805 5807 5809 5812 5814 5817 5819 5821 5823 5825 5827 5829 5831 5833 5835 5837 5839 5841 5843 5845 5847 5850 5851 5853 5854 5855 5856 5857 5857 5858 5858 5858 5858
5777 5778 5780 5782 5784 5786 5789 5791 5794 5796 5798 5800 5803 5806 5808 5811 5813 5815 5817 5820 5822 5824 5826 5829 5831 5833 5835 5837 5839 5842 5844 5846 5848 5850 5851 5852 5853 5854 5855 5855 5855 5856 5855
5769 5770 5772 5774 5776 5778 5781 5783 5786 5789 5791 5793 5796 5799 5802 5804 5807 5810 5812 5814 5817 5819 5822 5824 5826 5828 5831 5833 5836 5838 5840 5842 5845 5846 5848 5849 5850 5851 5852 5852 5853 5853 5853
5761 5762 5763 5765 5767 5770 5772 5775 5777 5780 5783 5786 5788 5791 5795 5798 5801 5803 5806 5808 5811 5814 5816 5819 5822 5824 5826 5829 5831 5834 5836 5838 5841 5843 5844 5846 5847 5848 5849 5849 5850 5850 5850
5754 5754 5755 5756 5758 5761 5763 5766 5769 5772 5775 5778 5781 5784 5787 5791 5794 5797 5800 5802 5805 5808 5811 5814 5816 5819 5821 5824 5826 5829 5832 5834 5836 5838 5840 5842 5843 5844 5845 5846 5846 5846 5847
5746 5746 5746 5747 5749 5751 5754 5757 5760 5763 5766 5770 5773 5776 5779 5783 5786 5790 5793 5795 5798 5801 5804 5808 5811 5813 5816 5819 5821 5824 5827 5830 5832 5834 5836 5838 5839 5840 5841 5842 5842 5843 5843
5737 5737 5737 5737 5739 5741 5744 5748 5751 5754 5757 5760 5764 5767 5771 5775 5779 5782 5785 5788 5791 5795 5798 5801 5805 5807 5811 5814 5816 5819 5822 5825 5827 5829 5831 5833 5834 5836 5837 5837 5838 5838 5839
5729 5728 5728 5728 5730 5732 5735 5738 5741 5745 5748 5752 5755 5759 5763 5767 5771 5775 5778 5781 5784 5788 5791 5794 5798 5801 5804 5808 5811 5813 5816 5819 5822 5824 5826 5828 5830 5831 5832 5833 5833 5834 5834
5721 5720 5720 5720 5721 5723 5726 5729 5732 5736 5739 5743 5747 5750 5754 5758 5763 5767 5771 5774 5777 5780 5784 5787 5791 5795 5798 5801 5805 5808 5810 5813 5816 5818 5821 5822 5824 5825 5827 5828 5828 5829 5829
5713 5713 5712 5713 5713 5715 5717 5720 5723 5727 5731 5734 5738 5742 5746 5750 5754 5759 5763 5766 5770 5773 5776 5780 5784 5788 5792 5795 5798 5802 5804 5807 5810 5812 5815 5816 5818 5820 5821 5822 5823 5823 5824
5706 5705 5705 5704 5705 5706 5709 5712 5714 5718 5722 5726 5729 5733 5737 5741 5746 5750 5754 5758 5762 5765 5769 5773 5777 5780 5784 5788 5792 5795 5798 5800 5803 5806 5808 5810 5812 5814 5815 5816 5817 5817 5818
5698 5697 5697 5697 5698 5699 5700 5703 5706 5709 5713 5716 5720 5724 5729 5733 5737 5741 5745 5750 5754 5757 5761 5765 5769 5773 5777 5781 5784 5788 5791 5794 5797 5799 5801 5803 5805 5807 5808 5809 5810 5811 5811
5691 5690 5690 5689 5690 5691 5693 5695 5698 5701 5704 5708 5712 5716 5720 5724 5728 5732 5736 5740 5745 5749 5753 5757 5761 5765 5769 5773 5777 5780 5784 5787 5789 5791 5794 5796 5798 5800 5801 5802 5803 5804 5805
5684 5683 5682 5682 5683 5684 5686 5688 5690 5693 5696 5700 5703 5707 5711 5715 5719 5723 5727 5731 5736 5740 5745 5749 5753 5757 5761 5765 5769 5772 5776 5779 5782 5784 5786 5789 5790 5792 5794 5795 5796 5797 5798
5678 5676 5676 5676 5676 5678 5679 5681 5683 5685 5689 5692 5695 5698 5702 5706 5710 5714 5718 5722 5726 5730 5735 5740 5744 5748 5752 5756 5761 5764 5768 5771 5774 5776 5779 5781 5783 5784 5786 5788 5788 5789 5790
5672 5671 5670 5670 5670 5672 5673 5675 5676 5678 5681 5685 5688 5691 5694 5697 5701 5705 5708 5713 5717 5721 5726 5731 5735 5740 5744 5748 5752 5756 5759 5763 5766 5768 5770 5773 5775 5777 5778 5779 5780 5781 5782
5667 5665 5665 5665 5665 5666 5667 5669 5670 5673 5675 5678 5681 5683 5686 5689 5692 5696 5699 5704 5708 5712 5717 5721 5726 5731 5735 5739 5743 5746 5750 5754 5757 5760 5762 5764 5766 5768 5769 5770 5771 5772 5773
5662 5661 5660 5659 5660 5660 5661 5663 5664 5666 5668 5671 5673 5675 5678 5681 5684 5687 5691 5694 5699 5703 5708 5712 5717 5721 5726 5730 5734 5738 5741 5744 5747 5750 5753 5755 5757 5758 5760 5761 5762 5762 5763
5657 5656 5655 5654 5654 5654 5655 5656 5657 5659 5661 5663 5665 5667 5670 5673 5676 5679 5682 5685 5690 5694 5699 5703 5707 5712 5716 5720 5725 5728 5731 5734 5737 5740 5743 5745 5747 5749 5750 5751 5752 5753 5753